Weather Service Report


363 
ASUS45 KREV 311010
RWRNV 
NEVADA REGIONAL WEATHER ROUNDUP
NATIONAL WEATHER SERVICE RENO NV
300 AM PDT TUE MAR 31 2015

NOTE: "FAIR" INDICATES FEW OR NO CLOUDS BELOW 12,000 FEET WITH NO
SIGNIFICANT WEATHER AND/OR OBSTRUCTIONS TO VISIBILITY.

NVZ001-003-004-311100-
WESTERN NEVADA
  
CITY           SKY/WX    TMP DP  RH WIND       PRES   REMARKS
RENO           PTCLDY    56  26  31 W9        30.01F                  
CARSON CITY    FAIR      57  25  28 N7        30.03F                  
MINDEN         FAIR      46  25  42 CALM      30.05                   
SLIDE MTN        N/A     36  18  48 W49         N/A                   
PYRAMID LAKE     N/A     61 N/A N/A W3          N/A                   
FALLON         MOCLDY    49  25  39 S3        29.98F                  
LOVELOCK       PTCLDY    46  20  35 CALM      29.97F                  
HAWTHORNE      CLEAR     55  23  28 SW6       29.99F                  
$$

NVZ002-CAZ072-073-311100-
NORTHERN AND CENTRAL SIERRA
  
CITY           SKY/WX    TMP DP  RH WIND       PRES   REMARKS
S. LAKE TAHOE  CLEAR     51  25  36 S8G21     30.10F                  
TRUCKEE        CLEAR     50  19  29 SW8G17    30.09F                  
SQUAW VLY 8000   N/A     41  19  42 S3          N/A                   
SUSANVILLE     CLEAR    N/A N/A N/A W3          N/A                   
BLUE CANYON    PTCLDY    49  34  56 S7        30.12S                  
MAMMOTH LAKES  FAIR      36  19  51 W5        30.17F                  
BRIDGEPORT     FAIR      50  20  30 W9        30.12F                  
$$

NVZ030-031-036-311100-
NORTHERN NEVADA
  
CITY           SKY/WX    TMP DP  RH WIND       PRES   REMARKS
ELKO           MOCLDY    40  13  33 CALM      30.00F                  
WINNEMUCCA     CLOUDY    47  21  35 W5        29.97S                  
WENDOVER       PTCLDY    45  19  36 CALM      30.00F                  
$$

NVZ035-037-311100-
CENTRAL NEVADA
  
CITY           SKY/WX    TMP DP  RH WIND       PRES   REMARKS
ELY            PTCLDY    43  12  28 S8        30.11F                  
EUREKA           N/A     44  12  27 SW6       30.06F                  
$$

NVZ013-014-311100-
SOUTH CENTRAL NEVADA
  
CITY           SKY/WX    TMP DP  RH WIND       PRES   REMARKS
TONOPAH        MOCLDY    45   6  20 N9        30.07F                  
$$

NVZ017-020-022-311100-
SOUTHERN NEVADA
  
CITY           SKY/WX    TMP DP  RH WIND       PRES   REMARKS
LAS VEGAS      CLEAR     69  17  13 S7        29.89F                  
N. LAS VEGAS   CLEAR     63  26  24 NW6       29.93S                  
NELLIS AFB     CLEAR     62  23  22 CALM      29.91F                  
HENDERSON      CLEAR     68  20  16 S12       29.95F                  
MERCURY        PTCLDY    53  20  27 E6        29.98S                  
$$

Return to Home page


Western Regional Climate Center, wrcc@dri.edu